Flag for Argentina Weather past 2 weeks in Río Gallegos, Santa Cruz, Argentina

Now
37 °F

Sunny.


Feels Like: 35 °F
Forecast: 28 / 39 °F
Wind: 3 mph from Southwest

Location: Rio Gallegos Aerodrome

Current Time: Jul 28, 2015 at 5:03:34 PM

Latest Report: Jul 28, 2015 at 4:00 PM


Visibility: 10 mi

Pressure: 29.71 "Hg

Humidity: 75%

Dew point: 30 °F

Location of Río GallegosLocation

Historic Weather in Río Gallegos — Graph

°F

Río Gallegos temperature yesterday

Maximum temperature yesterday: 39 °F (at 12:00 AM)
Minimum temperature yesterday: 34 °F (at 8:00 AM)
Average temperature yesterday: 36 °F

Past Weeks' High & Low Weather Summary

 TemperatureHumidityPressure
High48 °F (Jul 25, 2:00 PM)100% (Jul 24, 5:00 PM)29.86 "Hg (Jul 24, 5:00 PM)
Low27 °F (Jul 13, 10:00 PM)42% (Jul 16, 1:00 PM)28.82 "Hg (Jul 17, 2:00 AM)
Average37 °F75%29.35 "Hg
* Reported Jul 13 4:00 PM — Jul 28 4:00 PM, Río Gallegos, Weather by CustomWeather, © 2015

Note: Actual official high and low records may vary slightly from our data, if they occured in-between our weather recording intervals... More about our weather records

Advertising

Río Gallegos weather history for previous 24 hours

 ConditionsComfort  
Time TempWeatherWind HumidityBarometerVisibility
4:00 PM
Tue, Jul 28
37 °FSunny.3 mph75%29.71 "Hg10 mi
3:00 PM37 °FScattered clouds.8 mph70%29.71 "HgN/A
2:00 PM37 °FSunny.7 mph56%29.71 "Hg10 mi
1:00 PM36 °FSunny.9 mph65%29.71 "Hg10 mi
12:00 PM32 °FSunny.10 mph75%29.71 "Hg10 mi
11:00 AM30 °FSunny.10 mph80%29.68 "Hg10 mi
10:00 AM28 °FSunny.9 mph93%29.68 "Hg10 mi
9:00 AM28 °FSunny.10 mph86%29.65 "Hg10 mi
8:00 AM28 °FClear.8 mph93%29.62 "Hg10 mi
7:00 AM28 °FClear.10 mph93%29.59 "Hg10 mi
6:00 AM30 °FClear.10 mph86%29.56 "Hg10 mi
5:00 AM30 °FClear.12 mph86%29.53 "Hg10 mi
4:00 AM30 °FClear.12 mph93%29.53 "Hg10 mi
2:00 AM32 °FClear.9 mph87%29.47 "Hg10 mi
1:00 AM32 °FClear.12 mph93%29.47 "Hg10 mi
12:00 AM32 °FClear.8 mph93%29.45 "Hg10 mi
11:00 PM
Mon, Jul 27
34 °FPassing clouds.9 mph93%29.42 "HgN/A
10:00 PM36 °FPartly cloudy.10 mph93%29.42 "HgN/A
9:00 PM36 °FMostly cloudy.9 mph87%29.42 "HgN/A
8:00 PM36 °FOvercast.7 mph93%29.39 "HgN/A
7:00 PM36 °FOvercast.No wind93%29.39 "HgN/A
6:00 PM37 °FDrizzle. Mostly cloudy.9 mph93%29.36 "HgN/A
5:00 PM37 °FMore clouds than sun.5 mph93%29.33 "HgN/A
Weather by CustomWeather, © 2015

See weather overviewHow to use our weather pages